Lakehurst NAES /Maxfield Field
KNEL : now visible

Airfield :











YOU CAN JOIN US ON...

 
LOGIN :

Register | Disclaimer

   EN    FR    IT 

 









Legend :    VFR   Marginal VFR   IFR   Intensive IFR   Very Intensive IFR
Visi :
Ceiling :
>= 8 km
>= 3000ft
5 to 8 km
1000 to 3000 ft
1500m to 5 km
500 to 1000 ft
800 to 1500m
200 to 500 ft
< 800m
< 200 ft
Symbols :   Thunderstorms  Fog  Heavy snow  Heavy precipitations  Wind > 20 kt






- Airport Elevation : 101 ft
- IATA code : NEL


KNEL - Lakehurst NAES /Maxfield Field

CURRENT METAR :
  • 270400Z 08012KT 1 1/2SM BR OVC003 07/07 A2961 RMK AO2 PRESFR SLP027 T00720067 $

EXPIRED METARs :
  • 270327Z 09013KT 1 3/4SM BR OVC003 07/07 A2966 RMK AO2 T00720067 $
  • 270320Z 09013KT 2SM BR OVC003 07/07 A2966 RMK AO2 PRESFR T00720067 $
  • 270300Z 09010KT 1 1/2SM BR OVC002 07/07 A2969 RMK AO2 SLP053 T00720067 58030 $
  • 270200Z 09011KT 1 1/2SM BR OVC003 07/07 A2973 RMK AO2 SLP066 T00720067 $
  • 270117Z 09012KT 1 1/2SM BR OVC003 07/07 A2977 RMK AO2 T00670067 $

TAF N/A



MET'MAP, your aeronautical weather chart ! - Copyright ORBIFLY December 2007 - Disclaimer

ORBIFLY MET'MAP TEAM :

Programming & Development : Alexandra Zaïnal
Concept & original design : Baudouin d'Aumeries
Assistance for programming : Marc-Olivier Méhu
Technical & hardware support : Manuel Goepfert

Contact : metmap@orbifly.com




SOURCES & CREDITS :

   NOAA       Earth
Advisory